Siga o Apolo11 no Facebook   Siga o Apolo11 no Twiiter
Ciência, Espaço e Tecnologia




Elementos Keplerianos formato Two Line

Para que um programa de rastreio possa saber a localização exata de qualquer satélite no espaço e assim poder rastreá-lo corretamente, é necessário que ele seja carregado com algumas informações.

Estas informações são chamadas de Elementos Orbitais ou Elementos Keplerianos e consistem em 2 linhas com dezenas de números. Esses números nada mais são que os parâmetros orbitais do satélite, tais como altitude, atitude, excentricidade da órbita, número de órbitas por dia, etc.

Com base nestas informações o programa é capaz de determinar com bastante exatidão a posição de qualquer satélite no espaço e nos informar em qual horário este estará dentro do alcance de nossa estação. Para que isso seja feito com precisão é necessário que os dados estejam sempre bem atualizadas.

Devido aos parâmetros orbitais serem descritos em 2 linhas, estes formato é também conhecido internacionalmente por 2line (leia-se Two Line”).

Para atualizar seu programa de rastreio basta copiar os dados disponibilizados e fornece-los ao programa. Nossos elementos orbitais são atualizados diariamente.

NOAATodos os satélites ambientais da série NOAA
30 DiasSatélites lançados nos últimos 30 dias
ISSSatélites e foguetes relacionados à Estação Espacial Internacional
HAMSatélites construídos por radiomadores
CUBESatélites tipo cubo, com 10 centímetros de lado
METEOSatélites voltados à previsão do tempo
EDUSatélites construídos e operados por universidades
VIS100 satélites mais brilhantes que podem ser vistos a olho nú



Satélites Educacionais
SAUDISAT 1C             
1 27607U 02058C   21272.79356572  .00000125  00000-0  38389-4 0  9998
2 27607  64.5572  19.2663 0053631 350.3840   9.6231 14.75794127 10112
SAUDISAT 2              
1 28371U 04025F   21272.76818238  .00000133  00000-0  42138-4 0  9998
2 28371  98.3393 224.5958 0025242 184.0920 176.0124 14.54446750915390
SAUDISAT 3              
1 31118U 07012B   21272.74652912  .00000066  00000-0  19257-4 0  9994
2 31118  97.9313 221.6621 0014088 310.0400  49.9569 14.69219378774872
PISAT                   
1 41784U 16059B   21272.42228905  .00000189  00000-0  45125-4 0  9990
2 41784  97.9563 320.4227 0030515 274.3643  85.4074 14.63663901267505
FLYING LAPTOP           
1 42831U 17042G   21272.56069544 -.00000129  00000-0 -76939-5 0  9998
2 42831  97.4538 136.7391 0014453 154.1505 206.0471 14.91351546229208
SALSAT                  
1 46495U 20068K   21272.54941007  .00000666  00000-0  53124-4 0  9995
2 46495  97.6988 209.4603 0018974  81.1448 279.1924 15.03569642 54976


IMAGENS DE SATÉLITES !    Clique e conheça nosso Vídeo Workshop de sensoriamento remoto e imagens meteorológicas.
Apolo11.com - Todos os direitos reservados - 2001 - 2021
Política de Privacidade

"Governar é roubar, todo mundo sabe disso" - Calígula